Location: Street
(51.1247°N, 2.7429°W)
Time: 01:02:24
(UTC+00:00)

deb Explorer IX - Pass Details

Date: 05 December 2020
Orbit: 536 x 1104 km, 38.8° (Epoch: 20 January)

Event Time Altitude Azimuth Distance (km) Brightness Sun altitude
Rises 17:39:18 0° 258° (WSW) 3,674 ? -13.9°
Reaches altitude 10° 17:42:45 10° 243° (WSW) 2,622 ? -14.4°
Maximum altitude 17:47:08 20° 198° (SSW) 1,856 ? -15.1°
Drops below altitude 10° 17:51:06 10° 153° (SSE) 2,328 ? -15.7°
Enters shadow 17:53:50 - 137° (SE) 3,101 ? -16.1°
Sets 17:53:58 0° 136° (SE) 3,144 - -16.1°
